Location: Unspecified
(51.0950°N, 12.9690°E)
Time: 22:00:56
(UTC+00:00)

JY1SAT - Visible Passes

Search period start: 24 April 2024 00:00
Search period end: 04 May 2024 00:00
Orbit: 540 x 556 km, 97.5° (Epoch: 23 April)

Date Brightness Start Highest point End Pass type
(mag) Time Alt. Az. Time Alt. Az. Time Alt. Az.
24 Apr ? 20:23:08 19° SSW 20:25:46 48° W 20:29:37 10° NNW visible
25 Apr ? 20:18:06 18° S 20:20:50 54° W 20:24:43 10° NNW visible
26 Apr ? 20:13:01 18° S 20:15:53 62° W 20:19:47 10° NNW visible
27 Apr ? 20:07:55 17° S 20:10:53 70° WSW 20:14:50 10° NNW visible
28 Apr ? 20:02:47 16° S 20:05:53 79° WSW 20:09:50 10° NNW visible
29 Apr ? 19:57:38 15° SSE 20:00:51 88° W 20:04:48 10° NNW visible
30 Apr ? 19:52:26 14° SSE 19:55:47 82° ENE 19:59:43 10° NNW visible
30 Apr ? 21:29:48 10° WSW 21:31:02 11° W 21:32:16 10° WNW visible
01 May ? 19:47:13 13° SSE 19:50:41 73° ENE 19:54:37 10° N visible
01 May ? 21:24:07 10° WSW 21:25:53 13° W 21:27:38 10° WNW visible
02 May ? 19:41:58 12° SSE 19:45:35 64° ENE 19:49:28 10° N visible
02 May ? 21:18:33 10° WSW 21:20:41 14° W 21:22:50 10° NW visible
03 May ? 19:36:41 11° SSE 19:40:26 56° ENE 19:44:17 10° N visible
03 May ? 21:13:01 10° SW 21:15:28 16° W 21:17:55 10° NW visible
